Regional Weather Roundup
Issued by NWS

Home | Current Version | Previous Version | Text Only | Print | Product List | Glossary On
Versions: 1 2 3 4 5 6 7 8 9 10 11 12 13 14 15 16 17 18 19 20 21 22 23 24 25 26 27 28 29 30 31 32 33 34 35 36 37 38 39 40 41 42 43 44 45 46 47 48 49 50
000
ASUS43 KBIS 261410
RWRND

NORTH DAKOTA REGIONAL WEATHER ROUNDUP
NATIONAL WEATHER SERVICE BISMARCK ND
900 AM CDT WED JUL 26 2017

NOTE: "FAIR" INDICATES FEW OR NO CLOUDS BELOW 12,000 FEET WITH NO
SIGNIFICANT WEATHER AND/OR OBSTRUCTIONS TO VISIBILITY.


NDZ001>003-009>011-017-261500-
NORTHWEST NORTH DAKOTA

CITY           SKY/WX    TMP DP  RH WIND       PRES   REMARKS
WILLISTON      SUNNY     68  53  58 NE7       30.15S
MINOT          SUNNY     70  57  63 NW7       30.13R
MINOT AFB      SUNNY     68  57  68 N7        30.13R
$$

NDZ018>021-031>035-040>046-261500-
SOUTHWEST NORTH DAKOTA

CITY           SKY/WX    TMP DP  RH WIND       PRES   REMARKS
BISMARCK       SUNNY     73  58  59 CALM      30.11R
DICKINSON      SUNNY     69  54  58 E7        30.14R
GARRISON         N/A     70  58  65 N6        30.13R
HETTINGER ARPT SUNNY     73  50  44 NW5       30.16R
$$

NDZ004>008-012>016-024-026-027-054-261500-
NORTHEAST NORTH DAKOTA

CITY           SKY/WX    TMP DP  RH WIND       PRES   REMARKS
GRAND FORKS    SUNNY     71  62  73 NW13      30.02R
GRND FRKS AFB  SUNNY     70  61  73 N9        30.04R
DEVILS LAKE    SUNNY     68  60  75 NW16      30.09R
$$

NDZ022-023-025-028>030-036>039-047>053-261500-
SOUTHEAST NORTH DAKOTA

CITY           SKY/WX    TMP DP  RH WIND       PRES   REMARKS
FARGO          SUNNY     71  61  70 N9        30.03R
JAMESTOWN      SUNNY     70  58  65 N14       30.08R
$$





USA.gov is the U.S. government's official web portal to all federal, state and local government web resources and services.